Regional Weather Roundup
Issued by NWS

Home | Current Version | Previous Version | Graphics & Text | Print | Product List | Glossary On
Versions: 1 2 3 4 5 6 7 8 9 10 11 12 13 14 15 16 17 18 19 20 21 22 23 24 25 26 27 28 29 30 31 32 33 34 35 36 37 38 39 40 41 42 43 44 45 46 47 48 49 50
969
ASUS43 KIND 190709
RWRIN

WEATHER ROUNDUP FOR INDIANA
NATIONAL WEATHER SERVICE INDIANAPOLIS IN
200 AM EST THU JAN 19 2017

NOTE: "FAIR" INDICATES FEW OR NO CLOUDS BELOW 12,000 FEET WITH NO
SIGNIFICANT WEATHER AND/OR OBSTRUCTIONS TO VISIBILITY.

* - STATION DOES NOT REPORT WEATHER SUCH AS PRECIPITATION OR FOG.

+ - STATION NOT QUALITY CONTROLLED BY THE NATIONAL WEATHER SERVICE.
    USE DATA WITH CAUTION...ESPECIALLY DEWPOINT AND RELATIVE
    HUMIDITY OBSERVATIONS.

INZ001>003-010>013-019-020-190800-
NORTHWEST INDIANA

CITY           SKY/WX    TMP DP  RH WIND       PRES   REMARKS
GARY /AIRPORT/ CLOUDY    38  34  85 S5        30.06S
KNOX *+        CLOUDY    34  21  60 SW6       30.08S WCI  29
LA PORTE +     CLOUDY    34  32  92 SW7       30.08S WCI  28
MICHIGAN CITY+ CLOUDY    36  36 100 S7        30.07F
MONTICELLO +   CLOUDY    35  33  92 S5        30.08F WCI  31
RENSSELAER +     N/A     36  36 100 S8        30.09R
VALPARAISO     CLOUDY    36  34  92 S7        30.06F

$$

LMZ046-743>745-190800-
SOUTHERN LAKE MICHIGAN

STATION/POSITION TIME  TEMP    WIND        PRES    WAVE
                       AIR SEA DIR/SP/G            HT
                 (UTC) (F)     (DEG/KT/KT) (MB)    (FT)
BURNS HARBOR     0640   37     200/ 11/ 16 1018.6F

$$

INZ004-005-014>016-021>024-190800-
NORTH CENTRAL INDIANA

CITY           SKY/WX    TMP DP  RH WIND       PRES   REMARKS
GOSHEN         CLOUDY    35  30  82 SW8       30.07S WCI  29
LOGANSPORT +   CLOUDY    34  32  93 SW3       30.10F
ROCHESTER +    CLOUDY    36  34  93 SW6       30.09S
SOUTH BEND     CLOUDY    34  32  92 SW8       30.07S WCI  27
WARSAW +       CLOUDY    34  28  80 SW7       30.08S WCI  28

$$

INZ006>009-017-018-025>027-190800-
NORTHEAST INDIANA

CITY           SKY/WX    TMP DP  RH WIND       PRES   REMARKS
ANGOLA *+      CLOUDY    34  30  86 W8        30.05F WCI  27
AUBURN +       CLOUDY    34  32  93 W7        30.09R FOG     WCI  28
FORT WAYNE     CLOUDY    35  32  88 SW9       30.10R WCI  28
HUNTINGTON +   CLOUDY    34  33  96 SW5       30.09S WCI  30
KENDALLVILLE + CLOUDY    33  32  99 W12       30.07S FOG     WCI  24

$$

INZ028-029-035-036-043>045-051>053-190800-
WEST CENTRAL INDIANA

CITY           SKY/WX    TMP DP  RH WIND       PRES   REMARKS
CRAWFORDSVL +  CLOUDY    33  33 100 CALM      30.08F FOG
GREENCASTLE +  CLOUDY    36  34  93 SE5       30.10S FOG
LAFAYETTE      CLOUDY    36  34  92 S6        30.10S
TERRE HAUTE    CLOUDY    36  33  89 CALM      30.09S

$$

INZ030>032-037>040-046>048-054>057-064-065-190800-
CENTRAL INDIANA

CITY           SKY/WX    TMP DP  RH WIND       PRES   REMARKS
CP ATTERBURY + CLOUDY    36  34  93 CALM      30.11F
FISHERS *+     CLOUDY    36  36 100 SW5       30.11S
FRANKFORT +    CLOUDY    38  36  92 SW5       30.11S FOG
GREENWOOD *+   CLOUDY    38  36  92 CALM      30.10F
INDIANAPOLIS   CLOUDY    36  33  89 CALM      30.10F
-EAGLE CREEK   CLOUDY    37  33  85 S3        30.09F
KOKOMO +       CLOUDY    35  33  92 SW7       30.10F WCI  29
MARION +       CLOUDY    36  34  93 SW6       30.10S
MT COMFORT *+  CLOUDY    36  34  93 SW7       30.11S
SHELBYVILLE    CLOUDY    38  34  85 SW5       30.11S
ZIONSVILLE +   CLOUDY    35  33  94 SW6       30.11R WCI  30

$$

INZ033-034-041-042-049-050-058-059-190800-
EAST CENTRAL INDIANA

CITY           SKY/WX    TMP DP  RH WIND       PRES   REMARKS
MUNCIE         CLOUDY    37  34  89 SW5       30.09S

$$

INZ060-061-067>069-081>083-085>088-190800-
SOUTHWEST INDIANA

CITY           SKY/WX    TMP DP  RH WIND       PRES   REMARKS
EVANSVILLE     MOCLDY    40  36  86 E3        30.09S
HUNTINGBURG *+ CLOUDY    37  36  93 CALM      30.09F
WASHINGTON +   MOCLDY    37  36  94 CALM      30.10F

$$

INZ062-063-066-070>080-084-089>092-190800-
SOUTH CENTRAL AND SOUTHEAST INDIANA

CITY           SKY/WX    TMP DP  RH WIND       PRES   REMARKS
BLOOMINGTON    CLOUDY    35  32  88 CALM      30.09F FOG
MADISON *+     CLOUDY    36  34  93 CALM      30.13S
NORTH VERNON + CLOUDY   N/A N/A N/A CALM      30.13S
SEYMOUR +      MOCLDY    37  36  93 E5        30.11F

$$





USA.gov is the U.S. government's official web portal to all federal, state and local government web resources and services.